Peachtree City, GA

2:06 AM EST on February 21, 2017 (GMT -0500)
Peachtree City-Falcon

Weather History for KFFC - August, 2012

Change the Weather History Date:

Sunday, August 5, 2012

  Actual Average Record
Temperature  
Mean Temperature 78 °F 79 °F  
Max Temperature 91 °F 90 °F 96 °F (2015)
Min Temperature 68 °F 69 °F 63 °F (2002)
Degree Days  
Heating Degree Days 0 0  
Month to date heating degree days 0  
Since 1 June heating degree days 1  
Since 1 July heating degree days 0  
Cooling Degree Days 14 14  
Month to date cooling degree days 72  
Year to date cooling degree days 1032  
Since 1 June cooling degree days 842  
Growing Degree Days 28 (Base 50)    
Moisture  
Dew Point 69 °F    
Average Humidity 76    
Maximum Humidity 96    
Minimum Humidity 46    
Precipitation  
Precipitation 0.03 in 0.11 in 0.43 in (2000)
Month to date precipitation 0.58  
Year to date precipitation 30.99  
Sea Level Pressure  
Sea Level Pressure 30.14 in    
Wind  
Wind Speed 3 mph (East)    
Max Wind Speed 13 mph    
Max Gust Speed 24 mph    
Visibility 10 miles    
Events Rain    
T = Trace of Precipitation, MM = Missing Value Source: NWS Daily Summary

Daily Weather History Graph

Daily Weather History Graph

Search for Another Location

Airport or City:

Trip Planner

Search our weather history database for the weather conditions in past years. The results will help you decide how hot, cold, wet, or windy it might be!

Date:

Astronomy

Aug. 05, 2012 Rise Set
Actual Time 6:54 AM EDT 8:33 PM EDT
Civil Twilight 6:27 AM EDT 9:00 PM EDT
Nautical Twilight 5:54 AM EDT 9:32 PM EDT
Astronomical Twilight 5:20 AM EDT 10:06 PM EDT
Moon 10:28 PM EDT (8/5) 10:26 AM EDT (8/5)
Length of Visible Light 14h 33m
Length of Day
13h 39m
Waning Gibbous, 86% of the Moon is Illuminated
Aug 5
Waning Gibbous
Aug 9
Last Quarter
Aug 17
New
Aug 24
First Quarter
Aug 31
Full

Hourly Weather History & Observations

Time (EDT) Temp. Heat Index Dew Point Humidity Pressure Visibility Wind Dir Wind Speed Gust Speed Precip Events Conditions
12:53 AM 75.0 °F - 72.0 °F 90% 30.14 in 10.0 mi Calm Calm - N/A   Clear
1:53 AM 73.0 °F - 71.1 °F 93% 30.14 in 9.0 mi Calm Calm - N/A   Clear
2:53 AM 72.0 °F - 70.0 °F 93% 30.14 in 10.0 mi Calm Calm - N/A   Clear
3:53 AM 71.1 °F - 70.0 °F 96% 30.15 in 9.0 mi Calm Calm - N/A   Clear
4:53 AM 70.0 °F - 68.0 °F 93% 30.15 in 8.0 mi Calm Calm - N/A   Clear
5:53 AM 69.1 °F - 66.9 °F 93% 30.16 in 8.0 mi Calm Calm - N/A   Clear
6:53 AM 68.0 °F - 66.9 °F 96% 30.17 in 8.0 mi Calm Calm - N/A   Clear
7:53 AM 71.1 °F - 69.1 °F 93% 30.19 in 9.0 mi Calm Calm - N/A   Clear
8:53 AM 77.0 °F - 71.1 °F 82% 30.19 in 10.0 mi East 4.6 mph - N/A   Clear
9:53 AM 81.0 °F 84.4 °F 70.0 °F 69% 30.20 in 10.0 mi Variable 4.6 mph - N/A   Clear
10:53 AM 82.0 °F 85.9 °F 70.0 °F 67% 30.20 in 10.0 mi Variable 4.6 mph - N/A   Partly Cloudy
12:53 PM 86.0 °F 89.4 °F 68.0 °F 55% 30.18 in 10.0 mi ESE 6.9 mph - N/A   Partly Cloudy
1:53 PM 88.0 °F 91.4 °F 68.0 °F 51% 30.14 in 10.0 mi East 9.2 mph - N/A   Partly Cloudy
2:53 PM 89.1 °F 91.3 °F 66.0 °F 46% 30.10 in 10.0 mi East 8.1 mph 17.3 mph N/A   Clear
3:53 PM 84.9 °F 88.8 °F 69.1 °F 59% 30.11 in 10.0 mi East 12.7 mph 19.6 mph N/A   Overcast
4:53 PM 84.9 °F 89.4 °F 70.0 °F 61% 30.11 in 8.0 mi ENE 12.7 mph 24.2 mph 0.00 in Rain Light Rain
5:53 PM 84.0 °F 90.2 °F 73.0 °F 69% 30.10 in 10.0 mi ESE 5.8 mph - 0.03 in   Scattered Clouds
6:53 PM 86.0 °F 90.1 °F 69.1 °F 57% 30.09 in 10.0 mi East 6.9 mph - N/A   Mostly Cloudy
7:53 PM 82.9 °F 87.0 °F 70.0 °F 65% 30.09 in 10.0 mi ESE 8.1 mph - N/A   Partly Cloudy
8:53 PM 79.0 °F - 69.1 °F 72% 30.11 in 10.0 mi ESE 10.4 mph 19.6 mph N/A   Clear
9:53 PM 75.9 °F - 70.0 °F 82% 30.10 in 10.0 mi ESE 4.6 mph - N/A   Clear
10:53 PM 75.0 °F - 70.0 °F 84% 30.12 in 10.0 mi ENE 3.5 mph - N/A   Clear
11:53 PM 73.9 °F - 70.0 °F 87% 30.12 in 10.0 mi Calm Calm - N/A   Clear